Weather in Voronikha

Russia / Altai Krai     52°45′18″N   82°13′03″E
temp.,
°C
wind,
m/s
gust,
m/s
humid.,
%
clouds,
%
prec.,
mm/h
press.,
hPa
HPBL,
m
13 may, thu
thu1301:00+12nw224558 0.0 101520
04:00+11w22449 0.0 101510
07:00+10wnw34527 0.0 101576
10:00+15wnw4450100 0.0 1014914
13:00+17sw4545100 0.3 10132110
16:00+15ssw785783 0.4 10141146
19:00+12se2275100 0.4 1013726
22:00+12nne3681100 0.5 1014560
14 may, fri
fri1401:00+10n4883100 1.3 1015541
04:00+9n588994 0.3 1016359
07:00+9nnw4886100 0.4 1018369
10:00+12n577069 0.0 1019864
13:00+16n464165 0.1 10201882
16:00+17nnw6639100 0.0 10212095
19:00+17nnw56409 0.0 10221783
22:00+12nnw354687 0.0 102474
15 may, sat
sat1501:00+10n234864 0.0 102533
04:00+9nw114774 0.0 102510
07:00+10wsw224890 0.0 102632
10:00+16wsw343334 0.0 1026621
13:00+20wsw453054 0.0 10241125
16:00+22w563051 0.0 10221529
19:00+18w365053 0.0 1022308
22:00+17ssw484384 0.0 1020129
16 may, sun
sun1601:00+16sw513458 0.0 1019237
04:00+13sw4107199 1.2 1018176
07:00+14sw411695 1.8 1017210
10:00+20wsw685346 0.8 1016435
13:00+25w684198 0.8 10161181
16:00+23n4647100 0.1 1015747
19:00+24nw69445 0.1 10131672
22:00+19nne366169 0.0 1016125
17 may, mon
mon1701:00+15ne118467 0.0 101715
04:00+13nne359555 0.0 1018110
07:00+13nne238765 0.0 1018102
10:00+19n225958 0.0 1019575
13:00+23nnw224127 0.0 10181202
16:00+25wnw23375 0.0 10161842
19:00+26nw143710 0.0 10152072
22:00+21s47535 0.0 1014118